[[{"header":{"parameterUnit":"m.s-1","parameterCategory":1,"la1":30.2991,"la2":30.254,"lo1":-89.0895,"lo2":-89.0444,"dy":0.0017,"dx":0.0017,"nx":28,"ny":28,"refTime":"2023-09-16T09:00:00:Z","depth":0,"parameterNumber":2,"parameterNumberName":"U-component_of_WINDS"},"data":[0,0,0,0,0,0,0,0,0,0,0,0,0,0,0,0,0,0,0,0,0,0,0,0,0,0,0,0,0,0,0,0,0,0,0,0,0,0,0,0,0,0,0,0,0,0,0,0,0,0,0,0,0,0,0,0,0,0,-1.2131,-1.2132,0,-1.2215,-1.2216,-1.2217,-1.212,-1.2117,-1.2113,-1.2109,-1.22,-1.2206,-1.2211,0,0,0,0,0,0,0,0,0,0,0,0,0,-1.1889,-1.1894,-1.2131,-1.2132,-1.2133,-1.2215,-1.2216,-1.2217,-1.2121,-1.2116,-1.2112,-1.2108,-1.2198,-1.2205,-1.2212,0,0,0,0,0,0,0,0,0,0,0,0,0,-1.1986,-1.1896,-1.213,-1.2094,-1.2092,-1.2215,-1.2216,-1.2218,-1.2122,-1.2116,-1.2111,-1.2106,-1.2196,-1.2204,-1.2213,-1.2376,0,0,-1.224,-1.2243,0,0,0,0,0,0,0,0,-1.1981,-1.1995,-1.2099,-1.2097,-1.2095,-1.2151,-1.2164,-1.2271,-1.2123,-1.2111,-1.2109,-1.2103,-1.2189,-1.2198,-1.2226,-1.2381,-1.2385,-1.224,-1.2246,-1.2249,-1.2252,0,0,0,0,0,0,0,-1.1974,-1.1991,-1.2164,-1.21,-1.2098,-1.2075,-1.2083,-1.2184,-1.218,-1.2111,-1.2104,-1.2116,-1.2186,-1.2217,-1.2227,-1.2386,-1.224,-1.2248,-1.2253,-1.2257,-1.268,-1.2686,0,0,0,0,0,0,-1.1971,-1.1986,-1.2161,-1.2167,-1.2023,-1.2084,-1.2092,-1.2139,-1.2178,-1.2179,-1.212,-1.2111,-1.2205,-1.2217,-1.223,-1.2425,-1.2249,-1.2258,-1.2263,-1.2674,-1.2681,-1.2688,0,0,0,0,0,0,-1.1966,-1.1988,-1.2158,-1.2074,-1.2094,-1.2094,-1.2147,-1.2143,-1.2174,-1.2185,-1.2184,-1.2152,-1.2201,-1.2217,-1.2341,-1.2427,-1.2261,-1.2269,-1.2667,-1.2676,-1.2685,-1.2817,0,0,0,0,0,0,-1.196,-1.1986,-1.2048,-1.2077,-1.2099,-1.2267,-1.2152,-1.2149,-1.2189,-1.2177,-1.2215,-1.2216,-1.2198,-1.2328,-1.2349,-1.2436,-1.2276,-1.2659,-1.2671,-1.2682,-1.2805,-1.2829,-1.285,0,0,0,0,0,-1.1951,-1.2083,-1.2052,-1.2073,-1.2176,-1.2272,-1.2285,-1.2261,-1.2196,-1.2259,-1.2265,-1.2214,-1.2413,-1.2341,-1.2365,-1.2455,-1.2654,-1.2668,-1.2681,-1.2794,-1.2824,-1.2849,0,0,0,0,0,0,-1.2066,-1.2086,-1.2052,-1.2196,-1.2233,-1.2256,-1.2334,-1.2294,-1.2351,-1.2338,-1.2307,-1.2316,-1.2448,-1.2463,-1.2383,-1.2616,-1.2523,-1.2542,-1.2601,-1.263,-1.2652,-1.2647,-1.2283,0,0,0,0,0,-1.2107,-1.2183,-1.2196,-1.2322,-1.2342,-1.2335,-1.2376,-1.2354,-1.2392,-1.2408,-1.2423,-1.2463,-1.2534,-1.2582,-1.2648,-1.2805,-1.2813,-1.2878,-1.2901,-1.292,-1.2938,-1.3023,-1.3053,-1.2732,-1.2732,-1.2732,0,0,-1.2195,-1.2215,-1.2265,-1.2346,-1.2372,-1.2452,-1.2349,-1.2438,-1.2498,-1.2422,-1.2539,-1.2552,-1.2594,-1.2735,-1.2798,-1.2752,-1.3027,-1.2937,-1.2952,-1.2959,-1.304,-1.307,-1.3097,-1.2742,-1.274,-1.2738,0,0,-1.2397,-1.2418,-1.2526,-1.2554,-1.2594,-1.2588,-1.2614,-1.2643,-1.2648,-1.2765,-1.271,-1.278,-1.2903,-1.2936,-1.2969,-1.3181,-1.3137,-1.3203,-1.3323,-1.3406,-1.3432,-1.3454,-1.3532,-1.356,-1.322,-1.322,-1.322,0,-1.2501,-1.2619,-1.2587,-1.268,-1.2718,-1.265,-1.276,-1.2789,-1.285,-1.2878,-1.2825,-1.2978,-1.3001,-1.315,-1.3201,-1.3229,-1.3259,-1.3201,-1.343,-1.3452,-1.3473,-1.3547,-1.3576,-1.3228,-1.3227,-1.3226,-1.3226,0,-1.2746,-1.2828,-1.2911,-1.297,-1.3016,-1.3117,-1.3102,-1.3153,-1.3126,-1.3126,-1.3247,-1.3272,-1.3343,-1.3375,-1.3351,-1.3521,-1.3491,-1.3435,-1.3342,-1.3512,-1.3581,-1.3609,-1.324,-1.3237,-1.3234,-1.3232,0,0,-1.3025,-1.3064,-1.3095,-1.3121,-1.316,-1.3224,-1.3321,-1.3389,-1.3434,-1.3478,-1.3561,-1.3665,-1.3613,-1.365,-1.3628,-1.3701,-1.387,-1.3636,-1.3636,-1.3681,-1.4061,-1.4106,-1.4139,-1.3839,-1.3845,-1.3849,-1.4059,0,-1.3229,-1.3398,-1.3372,-1.3536,-1.3613,-1.3548,-1.3634,-1.3668,-1.367,-1.3735,-1.3737,-1.3813,-1.3737,-1.376,-1.3829,-1.3835,-1.3947,-1.3819,-1.3919,-1.3923,-1.3914,-1.4175,-1.4222,-1.4419,-1.4085,-1.409,-1.4093,0,-1.349,-1.3542,-1.3714,-1.3741,-1.3772,-1.3849,-1.3909,-1.3972,-1.4009,-1.4005,-1.4046,-1.4011,-1.4109,-1.4012,-1.4149,-1.4063,-1.4101,-1.411,-1.4117,-1.4129,-1.4021,-1.4196,-1.4481,-1.4512,-1.4135,-1.4131,-1.4128,0,-1.368,-1.3793,-1.391,-1.3934,-1.3968,-1.4024,-1.404,-1.4071,-1.4114,-1.4166,-1.4193,-1.4257,-1.4293,-1.4343,-1.4326,-1.4256,-1.4467,-1.4368,-1.4469,-1.447,-1.4519,-1.4517,-1.4818,-1.4539,-1.4539,-1.4538,-1.4537,0,-1.3913,-1.4021,-1.3996,-1.4069,-1.4188,-1.4156,-1.4276,-1.4284,-1.4313,-1.4387,-1.4334,-1.4405,-1.4376,-1.4446,-1.4433,-1.4549,-1.4565,-1.4566,-1.4562,-1.4573,-1.4573,-1.4601,-1.4588,-1.4546,-1.4544,-1.4543,-1.4541,0,-1.4147,-1.4134,-1.4258,-1.4279,-1.4286,-1.4374,-1.4392,-1.4461,-1.4457,-1.4552,-1.4572,-1.4568,-1.4647,-1.4633,-1.4721,-1.4712,-1.4858,-1.4836,-1.4846,-1.4842,-1.4945,-1.4937,-1.5277,-1.5321,-1.5011,-1.5013,-1.5016,0,-1.4298,-1.4379,-1.4408,-1.4453,-1.4474,-1.4548,-1.459,-1.4561,-1.4608,-1.4656,-1.4719,-1.4792,-1.485,-1.4979,-1.4985,-1.5051,-1.5032,-1.5146,-1.5042,-1.5051,-1.5037,-1.5034,-1.5043,-1.5168,-1.5172,-1.5175,-1.5177,0,-1.4568,-1.4557,-1.462,-1.4681,-1.4732,-1.4779,-1.4821,-1.4861,-1.4836,-1.4891,-1.497,-1.5015,-1.5103,-1.5178,-1.524,-1.5258,-1.5215,-1.5209,-1.5237,-1.5251,-1.5254,-1.5256,-1.4906,-1.5203,-1.52,-1.5198,-1.5197,-1.5196,-1.4767,-1.4837,-1.4868,-1.494,-1.4968,-1.5008,-1.5073,-1.5077,-1.5143,-1.5212,-1.5191,-1.5281,-1.5316,-1.5394,-1.5419,-1.549,-1.5448,-1.5487,-1.5498,-1.5509,-1.5522,-1.524,-1.5501,-1.55,-1.5499,-1.5499,-1.5498,0,-1.5037,-1.5053,-1.5119,-1.5179,-1.5236,-1.5186,-1.523,-1.5281,-1.5361,-1.5396,-1.5453,-1.5545,-1.5616,-1.5626,-1.5694,-1.5749,-1.5731,-1.5769,-1.5766,-1.5771,-1.5555,-1.5526,-1.5782,-1.5782,-1.5782,-1.5782,-1.5782,-1.5782,-1.5184,-1.5301,-1.5293,-1.5423,-1.5438,-1.5526,-1.5555,-1.5592,-1.562,-1.5724,-1.5783,-1.5788,-1.5813,-1.5883,-1.5946,-1.5947,-1.5976,-1.6022,-1.6016,-1.5815,-1.5786,-1.576,-1.5732,-1.6028,-1.6028,-1.6227,-1.6229,-1.623]},{"header":{"parameterUnit":"m.s-1","parameterCategory":1,"la1":30.2991,"la2":30.254,"lo1":-89.0895,"lo2":-89.0444,"dy":0.0017,"dx":0.0017,"nx":28,"ny":28,"refTime":"2023-09-16T09:00:00:Z","depth":0,"parameterNumber":3,"parameterNumberName":"V-component_of_WINDS"},"data":[0,0,0,0,0,0,0,0,0,0,0,0,0,0,0,0,0,0,0,0,0,0,0,0,0,0,0,0,0,0,0,0,0,0,0,0,0,0,0,0,0,0,0,0,0,0,0,0,0,0,0,0,0,0,0,0,0,0,-3.4921,-3.4922,0,-3.5008,-3.5009,-3.501,-3.4959,-3.4956,-3.4954,-3.4952,-3.5038,-3.5043,-3.5047,0,0,0,0,0,0,0,0,0,0,0,0,0,-3.4709,-3.4714,-3.4921,-3.4922,-3.4923,-3.5008,-3.5009,-3.501,-3.4959,-3.4956,-3.4953,-3.4951,-3.5037,-3.5042,-3.5048,0,0,0,0,0,0,0,0,0,0,0,0,0,-3.4799,-3.4715,-3.4921,-3.4908,-3.4908,-3.5008,-3.5009,-3.5011,-3.496,-3.4956,-3.4953,-3.4949,-3.5035,-3.5042,-3.5049,-3.5165,0,0,-3.507,-3.5073,0,0,0,0,0,0,0,0,-3.4794,-3.4807,-3.4909,-3.4909,-3.4909,-3.4969,-3.4966,-3.5062,-3.4961,-3.494,-3.4952,-3.4947,-3.5018,-3.5026,-3.505,-3.5169,-3.5173,-3.507,-3.5074,-3.5077,-3.5079,0,0,0,0,0,0,0,-3.4788,-3.4803,-3.4955,-3.4911,-3.4911,-3.4897,-3.4906,-3.4984,-3.4999,-3.4942,-3.4938,-3.4949,-3.5017,-3.5044,-3.5052,-3.5174,-3.507,-3.5076,-3.508,-3.5083,-3.5392,-3.5396,0,0,0,0,0,0,-3.4783,-3.4798,-3.4953,-3.4958,-3.4842,-3.4904,-3.4914,-3.4953,-3.4998,-3.5001,-3.4952,-3.4947,-3.5034,-3.5044,-3.5055,-3.5194,-3.5077,-3.5084,-3.5088,-3.5388,-3.5393,-3.5397,0,0,0,0,0,0,-3.4779,-3.4797,-3.4949,-3.4877,-3.4896,-3.4912,-3.4957,-3.4957,-3.4984,-3.5006,-3.5008,-3.4977,-3.5031,-3.5045,-3.5138,-3.5196,-3.5087,-3.5093,-3.5383,-3.5389,-3.5395,-3.5473,0,0,0,0,0,0,-3.4773,-3.4796,-3.4841,-3.4879,-3.49,-3.5032,-3.496,-3.4961,-3.4996,-3.4989,-3.5029,-3.5033,-3.503,-3.5128,-3.5145,-3.5204,-3.5099,-3.5378,-3.5386,-3.5393,-3.5465,-3.5481,-3.5495,0,0,0,0,0,-3.4765,-3.4859,-3.4844,-3.4863,-3.4956,-3.5035,-3.5047,-3.5043,-3.5001,-3.5046,-3.506,-3.5031,-3.5187,-3.5138,-3.5157,-3.5218,-3.5374,-3.5384,-3.5392,-3.5459,-3.5478,-3.5494,0,0,0,0,0,0,-3.4828,-3.4864,-3.4847,-3.4956,-3.4993,-3.5027,-3.5083,-3.5063,-3.5112,-3.5104,-3.5095,-3.5105,-3.5201,-3.5219,-3.5164,-3.5333,-3.5274,-3.5287,-3.5318,-3.5337,-3.5351,-3.5345,-3.5104,0,0,0,0,0,-3.4854,-3.4916,-3.4944,-3.5037,-3.5057,-3.5067,-3.5101,-3.5095,-3.5132,-3.5147,-3.5168,-3.5205,-3.5262,-3.53,-3.5354,-3.5468,-3.5475,-3.5519,-3.5534,-3.5546,-3.5557,-3.5618,-3.5638,-3.5427,-3.5427,-3.5427,0,0,-3.4909,-3.4937,-3.4976,-3.5051,-3.5078,-3.5142,-3.5081,-3.515,-3.5197,-3.5158,-3.5247,-3.5264,-3.5304,-3.5408,-3.5454,-3.5425,-3.5617,-3.5557,-3.5566,-3.5572,-3.5629,-3.5649,-3.5667,-3.5433,-3.5432,-3.5431,0,0,-3.5042,-3.507,-3.515,-3.518,-3.5223,-3.5229,-3.5248,-3.5285,-3.5295,-3.5384,-3.5356,-3.5411,-3.551,-3.554,-3.5568,-3.5712,-3.5687,-3.573,-3.5806,-3.5865,-3.5882,-3.5896,-3.5948,-3.5966,-3.5741,-3.5741,-3.5741,0,-3.5105,-3.52,-3.5194,-3.5266,-3.53,-3.5267,-3.5348,-3.5377,-3.5435,-3.5459,-3.5425,-3.5549,-3.5574,-3.5684,-3.5719,-3.5743,-3.5764,-3.5725,-3.588,-3.5895,-3.5908,-3.5957,-3.5976,-3.5746,-3.5746,-3.5745,-3.5745,0,-3.5276,-3.5342,-3.5402,-3.546,-3.55,-3.5576,-3.558,-3.5621,-3.5611,-3.562,-3.5711,-3.574,-3.58,-3.5825,-3.5815,-3.5934,-3.5914,-3.5881,-3.5821,-3.5933,-3.5979,-3.5998,-3.5753,-3.5751,-3.575,-3.5749,0,0,-3.545,-3.5504,-3.5526,-3.5552,-3.5597,-3.5648,-3.5722,-3.578,-3.5816,-3.5857,-3.5918,-3.6003,-3.5972,-3.6004,-3.5997,-3.605,-3.6162,-3.601,-3.601,-3.6037,-3.6293,-3.6318,-3.634,-3.6145,-3.6149,-3.6152,-3.629,0,-3.5586,-3.5717,-3.5713,-3.5835,-3.5896,-3.5866,-3.5931,-3.5965,-3.5976,-3.6028,-3.6039,-3.6099,-3.6054,-3.6073,-3.6124,-3.6137,-3.6213,-3.6127,-3.6202,-3.6205,-3.6193,-3.6364,-3.6391,-3.652,-3.6308,-3.6311,-3.6313,0,-3.5762,-3.581,-3.5938,-3.5974,-3.5999,-3.6058,-3.6111,-3.6162,-3.6199,-3.6203,-3.6239,-3.6224,-3.6299,-3.6237,-3.634,-3.6281,-3.6312,-3.6323,-3.6328,-3.6335,-3.6266,-3.6375,-3.6561,-3.658,-3.6341,-3.6339,-3.6337,0,-3.5877,-3.5973,-3.6062,-3.6085,-3.6129,-3.6171,-3.6191,-3.6225,-3.626,-3.6306,-3.6329,-3.6383,-3.6412,-3.6454,-3.6454,-3.6409,-3.6557,-3.6496,-3.6562,-3.6562,-3.6595,-3.6593,-3.6788,-3.6614,-3.6614,-3.6614,-3.6613,0,-3.6029,-3.6109,-3.6114,-3.6169,-3.6257,-3.6251,-3.6338,-3.6354,-3.6384,-3.6441,-3.6418,-3.6471,-3.6468,-3.6521,-3.6521,-3.6606,-3.662,-3.6624,-3.6623,-3.6627,-3.6626,-3.6647,-3.6638,-3.6619,-3.6618,-3.6617,-3.6616,0,-3.6172,-3.6179,-3.6274,-3.6308,-3.6318,-3.6382,-3.641,-3.6462,-3.647,-3.6542,-3.6559,-3.6572,-3.6634,-3.6638,-3.6709,-3.6709,-3.6812,-3.6801,-3.68,-3.6798,-3.6864,-3.6858,-3.7079,-3.7108,-3.6916,-3.6917,-3.6919,0,-3.6269,-3.6329,-3.637,-3.6407,-3.6429,-3.6489,-3.6525,-3.6521,-3.6559,-3.6607,-3.6653,-3.6713,-3.6761,-3.6861,-3.6877,-3.6931,-3.6921,-3.6995,-3.6929,-3.6931,-3.6923,-3.6919,-3.6925,-3.7008,-3.701,-3.7012,-3.7013,0,-3.644,-3.644,-3.6493,-3.6548,-3.6592,-3.6634,-3.6674,-3.6705,-3.6706,-3.675,-3.6814,-3.6851,-3.6924,-3.6984,-3.7037,-3.7057,-3.7036,-3.7034,-3.7052,-3.7056,-3.7053,-3.7056,-3.6835,-3.7029,-3.7027,-3.7026,-3.7025,-3.7025,-3.6563,-3.6615,-3.6652,-3.6712,-3.6741,-3.6778,-3.6829,-3.6843,-3.6897,-3.6957,-3.6951,-3.7021,-3.7057,-3.7126,-3.715,-3.7205,-3.718,-3.7206,-3.7213,-3.722,-3.7227,-3.7044,-3.7214,-3.7214,-3.7214,-3.7213,-3.7213,0,-3.6732,-3.6755,-3.681,-3.6866,-3.6913,-3.6889,-3.6931,-3.6972,-3.7035,-3.707,-3.7118,-3.7191,-3.7249,-3.7269,-3.7325,-3.7364,-3.7356,-3.7379,-3.7376,-3.7381,-3.7246,-3.7225,-3.7385,-3.7385,-3.7385,-3.7385,-3.7385,-3.7385,-3.6826,-3.6914,-3.6918,-3.7019,-3.7041,-3.711,-3.7136,-3.7171,-3.7199,-3.7282,-3.733,-3.7342,-3.7371,-3.7429,-3.7481,-3.7485,-3.7507,-3.7535,-3.7535,-3.7408,-3.7391,-3.7374,-3.7354,-3.7539,-3.754,-3.7666,-3.7667,-3.7668]}]]